Погода в Караме

Россия / Иркутская область     55°08′33″N   107°36′02″E
темп.,
°C
ветер,
м/с
пор.,
м/с
влажн.,
%
обл.,
%
осадки,
мм/ч
давл.,
гПа
погр.,
м
20 апреля, вт
вт2023:00−3з2282100 0.0 100441
02:00−1зюз31085100 0.1 1006548
05:00−3з3781100 0.0 1010326
08:00−5зюз5872100 0.0 1014524
11:00−1зюз4661100 0.0 10131256
14:000зюз4652100 0.0 10131658
17:000з3449100 0.0 10141523
20:00−4зсз1276100 0.0 101640
21 апреля, ср
ср2123:00−5ссз2774100 0.0 1017286
02:00−6с2572100 0.0 1019466
05:00−6сз1473100 0.0 1020281
08:00−5ссз2360100 0.0 1022884
11:00−2з2447100 0.1 10211932
14:00−2з4540100 0.1 10212266
17:00−2зсз4650100 0.1 10231736
20:00−6сз246962 0.1 102676
22 апреля, чт
чт2223:00−9з11885 0.0 102915
02:00−10сз119145 0.0 103125
05:00−11сз119433 0.0 103413
08:00−7с13615 0.0 1035718
11:00−4ссв334490 0.0 10351548
14:00−1ссв3441100 0.0 10351798
17:00−1с453990 0.0 10361863
20:00−5с22660 0.0 103935
23 апреля, пт
пт2323:00−7сз22825 0.0 104329
02:00−8зсз11875 0.0 104515
05:00−9зсз11935 0.0 104711
08:00−4ссв12652 0.0 1047285
11:000ссв24483 0.0 10461052
14:00+3ссв34370 0.0 10451497
17:00+3ссв233961 0.0 10441713
20:00−2св227559 0.0 104512
24 апреля, сб
сб2423:00−4сз118112 0.0 104610
02:00−4ссз1183100 0.0 104611
05:00−6ссз009088 0.0 104510
08:00−2св2468100 0.0 1043316
11:00+3св3352100 0.0 1040716
14:00+6всв234193 0.0 1035855
17:00+6всв344499 0.0 1032792
20:00+1ссв2272100 0.0 103214